When you browse on this site, cookies collect data to enhance your experience and personalize the content and advertising you see.
Visit our Privacy Policy to learn more. By continuing to use the site, you agree to this use of cookies and data.

Hourly Weather Malanje

Today, 2 July, Thursday

Time Temperature Precipitation Wind Pressure Humidity
00:00 +18°C° 0 mm 1 mps 665 mmHg 37%
01:00 +18°C° 0 mm 1 mps 665 mmHg 38%
02:00 +16°C° 0 mm 1 mps 665 mmHg 40%
03:00 +15°C° 0 mm 1 mps 664 mmHg 43%
04:00 +14°C° 0 mm 1 mps 664 mmHg 45%
05:00 +15°C° 0 mm 1 mps 664 mmHg 46%
06:00 +15°C° 0 mm 1 mps 665 mmHg 47%
07:00 +15°C° 0 mm 1 mps 665 mmHg 48%
08:00 +19°C° 0 mm 2 mps 666 mmHg 41%
09:00 +24°C° 0 mm 2 mps 667 mmHg 34%
10:00 +27°C° 0 mm 3 mps 667 mmHg 27%
11:00 +29°C° 0 mm 3 mps 667 mmHg 24%
12:00 +31°C° 0 mm 2 mps 667 mmHg 21%
13:00 +34°C° 0 mm 2 mps 667 mmHg 18%
14:00 +34°C° 0 mm 2 mps 666 mmHg 18%
15:00 +34°C° 0 mm 2 mps 665 mmHg 18%
16:00 +32°C° 0 mm 2 mps 665 mmHg 19%
17:00 +29°C° 0 mm 2 mps 665 mmHg 23%
18:00 +26°C° 0 mm 1 mps 664 mmHg 28%
19:00 +23°C° 0 mm 1 mps 664 mmHg 32%
20:00 +22°C° 0 mm 1 mps 664 mmHg 34%
21:00 +19°C° 0 mm 0 mps 664 mmHg 35%
22:00 +18°C° 0 mm 0 mps 664 mmHg 37%
23:00 +17°C° 0 mm 0 mps 664 mmHg 40%

Tomorrow, 3 July, Friday

Time Temperature Precipitation Wind Pressure Humidity
00:00 +17°C° 0 mm 0 mps 664 mmHg 44%
01:00 +16°C° 0 mm 0 mps 664 mmHg 47%
02:00 +16°C° 0 mm 1 mps 664 mmHg 48%
03:00 +16°C° 0 mm 1 mps 664 mmHg 50%
04:00 +16°C° 0 mm 1 mps 664 mmHg 51%
05:00 +16°C° 0 mm 2 mps 664 mmHg 51%
06:00 +16°C° 0 mm 2 mps 665 mmHg 51%
07:00 +16°C° 0 mm 2 mps 665 mmHg 51%
08:00 +19°C° 0 mm 3 mps 666 mmHg 44%
09:00 +24°C° 0 mm 3 mps 667 mmHg 36%
10:00 +27°C° 0 mm 4 mps 667 mmHg 29%
11:00 +29°C° 0 mm 3 mps 667 mmHg 26%
12:00 +31°C° 0 mm 3 mps 667 mmHg 23%
13:00 +34°C° 0 mm 2 mps 667 mmHg 20%
14:00 +34°C° 0 mm 2 mps 666 mmHg 20%
15:00 +34°C° 0 mm 2 mps 666 mmHg 19%
16:00 +34°C° 0 mm 2 mps 665 mmHg 19%
17:00 +30°C° 0 mm 1 mps 665 mmHg 23%
18:00 +27°C° 0 mm 1 mps 665 mmHg 28%
19:00 +23°C° 0 mm 1 mps 664 mmHg 32%
20:00 +23°C° 0 mm 1 mps 665 mmHg 34%
21:00 +22°C° 0 mm 1 mps 665 mmHg 35%
22:00 +21°C° 0 mm 1 mps 665 mmHg 37%
23:00 +20°C° 0 mm 1 mps 665 mmHg 39%

Day after tomorrow, 4 July, Saturday

Time Temperature Precipitation Wind Pressure Humidity
00:00 +19°C° 0 mm 1 mps 665 mmHg 40%
01:00 +19°C° 0 mm 1 mps 665 mmHg 42%
02:00 +18°C° 0 mm 1 mps 665 mmHg 43%
03:00 +16°C° 0 mm 1 mps 664 mmHg 45%
04:00 +15°C° 0 mm 1 mps 664 mmHg 47%
05:00 +15°C° 0 mm 2 mps 665 mmHg 46%
06:00 +15°C° 0 mm 2 mps 665 mmHg 46%
07:00 +16°C° 0 mm 3 mps 666 mmHg 45%
08:00 +19°C° 0 mm 3 mps 666 mmHg 37%
09:00 +23°C° 0 mm 4 mps 667 mmHg 30%
10:00 +27°C° 0 mm 5 mps 668 mmHg 22%
11:00 +29°C° 0 mm 4 mps 667 mmHg 20%
12:00 +32°C° 0 mm 4 mps 667 mmHg 18%
13:00 +33°C° 0 mm 3 mps 667 mmHg 16%
14:00 +33°C° 0 mm 3 mps 666 mmHg 16%
15:00 +33°C° 0 mm 3 mps 666 mmHg 16%
16:00 +33°C° 0 mm 3 mps 665 mmHg 16%
17:00 +29°C° 0 mm 2 mps 665 mmHg 20%
18:00 +26°C° 0 mm 2 mps 665 mmHg 24%
19:00 +23°C° 0 mm 1 mps 664 mmHg 27%
20:00 +21°C° 0 mm 2 mps 665 mmHg 29%
21:00 +20°C° 0 mm 2 mps 665 mmHg 31%
22:00 +19°C° 0 mm 2 mps 665 mmHg 32%
23:00 +18°C° 0 mm 2 mps 665 mmHg 33%

5 July, Sunday

Time Temperature Precipitation Wind Pressure Humidity
00:00 +18°C° 0 mm 2 mps 665 mmHg 34%
01:00 +17°C° 0 mm 2 mps 665 mmHg 34%
02:00 +16°C° 0 mm 2 mps 664 mmHg 37%
03:00 +15°C° 0 mm 2 mps 664 mmHg 39%
04:00 +15°C° 0 mm 2 mps 664 mmHg 41%
05:00 +15°C° 0 mm 2 mps 665 mmHg 41%
06:00 +14°C° 0 mm 3 mps 665 mmHg 41%
07:00 +14°C° 0 mm 3 mps 665 mmHg 41%
08:00 +19°C° 0 mm 3 mps 666 mmHg 34%
09:00 +22°C° 0 mm 4 mps 667 mmHg 27%
10:00 +27°C° 0 mm 4 mps 668 mmHg 20%
11:00 +29°C° 0 mm 4 mps 667 mmHg 18%
12:00 +31°C° 0 mm 3 mps 667 mmHg 16%
13:00 +34°C° 0 mm 2 mps 667 mmHg 14%
14:00 +32°C° 0 mm 2 mps 666 mmHg 14%
15:00 +32°C° 0 mm 2 mps 665 mmHg 15%
16:00 +32°C° 0 mm 2 mps 665 mmHg 15%
17:00 +29°C° 0 mm 2 mps 665 mmHg 19%
18:00 +26°C° 0 mm 1 mps 664 mmHg 23%
19:00 +23°C° 0 mm 1 mps 664 mmHg 27%
20:00 +22°C° 0 mm 1 mps 664 mmHg 29%
21:00 +21°C° 0 mm 1 mps 664 mmHg 30%
22:00 +20°C° 0 mm 1 mps 665 mmHg 32%
23:00 +19°C° 0 mm 1 mps 664 mmHg 34%

6 July, Monday

Time Temperature Precipitation Wind Pressure Humidity
00:00 +18°C° 0 mm 1 mps 664 mmHg 36%
01:00 +16°C° 0 mm 1 mps 664 mmHg 39%
02:00 +15°C° 0 mm 1 mps 664 mmHg 41%
03:00 +15°C° 0 mm 1 mps 664 mmHg 44%
04:00 +14°C° 0 mm 2 mps 664 mmHg 46%
05:00 +14°C° 0 mm 2 mps 664 mmHg 45%
06:00 +14°C° 0 mm 2 mps 665 mmHg 43%
07:00 +14°C° 0 mm 3 mps 665 mmHg 42%
08:00 +18°C° 0 mm 3 mps 666 mmHg 34%
09:00 +22°C° 0 mm 4 mps 667 mmHg 27%
10:00 +27°C° 0 mm 4 mps 668 mmHg 20%
11:00 +29°C° 0 mm 3 mps 667 mmHg 18%
12:00 +31°C° 0 mm 3 mps 667 mmHg 15%
13:00 +34°C° 0 mm 2 mps 667 mmHg 13%
14:00 +34°C° 0 mm 2 mps 666 mmHg 13%
15:00 +32°C° 0 mm 2 mps 665 mmHg 13%
16:00 +32°C° 0 mm 2 mps 665 mmHg 12%
17:00 +29°C° 0 mm 2 mps 665 mmHg 16%
18:00 +26°C° 0 mm 1 mps 664 mmHg 19%
19:00 +23°C° 0 mm 1 mps 664 mmHg 22%
20:00 +22°C° 0 mm 1 mps 664 mmHg 23%
21:00 +20°C° 0 mm 1 mps 664 mmHg 25%
22:00 +19°C° 0 mm 1 mps 665 mmHg 26%
23:00 +18°C° 0 mm 1 mps 664 mmHg 31%

7 July, Tuesday

Time Temperature Precipitation Wind Pressure Humidity
00:00 +16°C° 0 mm 1 mps 664 mmHg 37%
01:00 +14°C° 0 mm 0 mps 664 mmHg 42%
02:00 +15°C° 0 mm 1 mps 664 mmHg 41%
03:00 +14°C° 0 mm 1 mps 664 mmHg 40%
04:00 +14°C° 0 mm 1 mps 664 mmHg 39%
05:00 +14°C° 0 mm 2 mps 664 mmHg 38%
06:00 +14°C° 0 mm 2 mps 665 mmHg 36%
07:00 +14°C° 0 mm 2 mps 665 mmHg 34%
08:00 +18°C° 0 mm 3 mps 666 mmHg 28%
09:00 +22°C° 0 mm 3 mps 667 mmHg 22%
10:00 +27°C° 0 mm 4 mps 667 mmHg 16%
11:00 +29°C° 0 mm 3 mps 667 mmHg 14%
12:00 +31°C° 0 mm 3 mps 667 mmHg 12%
13:00 +34°C° 0 mm 2 mps 666 mmHg 10%
14:00 +34°C° 0 mm 2 mps 666 mmHg 10%
15:00 +34°C° 0 mm 2 mps 665 mmHg 10%
16:00 +32°C° 0 mm 1 mps 665 mmHg 9%
17:00 +29°C° 0 mm 1 mps 664 mmHg 12%
18:00 +25°C° 0 mm 1 mps 664 mmHg 15%
19:00 +22°C° 0 mm 1 mps 664 mmHg 17%
20:00 +21°C° 0 mm 1 mps 664 mmHg 19%
21:00 +20°C° 0 mm 1 mps 664 mmHg 20%
22:00 +19°C° 0 mm 1 mps 664 mmHg 22%
23:00 +18°C° 0 mm 1 mps 664 mmHg 26%
Show more